MSR694 OEMA-HESH

Flight info

Callsign MSR694
Flight time 1h 10m
Altitude 36000
Route PEGUR Z712 WEJ L677 SHM
Aircraft B738/M-SDE2E3FGHIRWXY/LB1

Departure

Time 2026-05-04 19:13
Airport Prince Mohammad Bin Abdulaziz Airport (OEMA)

Arrival

Time 2026-05-04 20:23
Airport Sharm El Sheikh International Airport (HESH)
Time Latitude Longitude Altitude Speed Heading
2026-05-04 18:59 24.54961 39.71400 2104 ft 0 kts 79°
2026-05-04 19:00 24.54942 39.71400 2104 ft 0 kts 79°
2026-05-04 19:08 24.54938 39.71377 2104 ft 4 kts 83°
2026-05-04 19:08 24.54936 39.71348 2104 ft 4 kts 90°
2026-05-04 19:08 24.54938 39.71319 2106 ft 4 kts 104°
2026-05-04 19:08 24.54948 39.71294 2105 ft 4 kts 142°
2026-05-04 19:09 24.54958 39.71287 2106 ft 0 kts 168°
2026-05-04 19:11 24.54953 39.71288 2106 ft 3 kts 168°
2026-05-04 19:11 24.54911 39.71298 2104 ft 9 kts 169°
2026-05-04 19:11 24.54847 39.71229 2104 ft 16 kts 256°
2026-05-04 19:12 24.54825 39.71100 2107 ft 18 kts 262°
2026-05-04 19:12 24.55015 39.70891 2112 ft 43 kts 349°
2026-05-04 19:12 24.55532 39.70778 2108 ft 110 kts 349°
2026-05-04 19:13 24.56488 39.70578 2220 ft 156 kts 343°
2026-05-04 19:13 24.57641 39.70347 2738 ft 178 kts 349°
2026-05-04 19:13 24.58819 39.70121 3621 ft 175 kts 347°
2026-05-04 19:13 24.60085 39.69873 4002 ft 197 kts 345°
2026-05-04 19:14 24.61501 39.69545 4202 ft 219 kts 345°
2026-05-04 19:14 24.63055 39.69192 4358 ft 237 kts 344°
2026-05-04 19:14 24.64712 39.68829 4731 ft 246 kts 345°
2026-05-04 19:14 24.66411 39.68467 5182 ft 250 kts 345°
2026-05-04 19:15 24.68126 39.68104 5671 ft 254 kts 344°
2026-05-04 19:15 24.69879 39.67729 6077 ft 259 kts 344°
2026-05-04 19:15 24.71652 39.67351 6538 ft 260 kts 345°
2026-05-04 19:15 24.73434 39.66969 6992 ft 261 kts 345°
2026-05-04 19:16 24.75227 39.66587 7404 ft 264 kts 345°
2026-05-04 19:16 24.77039 39.66201 7829 ft 267 kts 345°
2026-05-04 19:16 24.78866 39.65813 8314 ft 268 kts 345°
2026-05-04 19:16 24.80702 39.65425 8832 ft 270 kts 344°
2026-05-04 19:17 24.82555 39.65028 9343 ft 273 kts 343°
2026-05-04 19:17 24.84426 39.64626 9829 ft 274 kts 344°
2026-05-04 19:17 24.86297 39.64222 9990 ft 272 kts 343°
2026-05-04 19:17 24.88140 39.63769 10016 ft 272 kts 342°
2026-05-04 19:18 24.90004 39.63298 10043 ft 277 kts 342°
2026-05-04 19:18 24.91882 39.62829 10041 ft 276 kts 342°
2026-05-04 19:18 24.93748 39.62366 10034 ft 274 kts 342°
2026-05-04 19:18 24.95437 39.61535 10050 ft 261 kts 315°
2026-05-04 19:19 24.96633 39.60079 10445 ft 256 kts 302°
2026-05-04 19:19 24.97645 39.58434 10816 ft 262 kts 299°
2026-05-04 19:19 24.98625 39.56735 11310 ft 262 kts 298°
2026-05-04 19:19 24.99600 39.55033 11828 ft 263 kts 298°
2026-05-04 19:20 25.00585 39.53322 12288 ft 266 kts 298°
2026-05-04 19:20 25.01581 39.51600 12805 ft 267 kts 298°
2026-05-04 19:20 25.02587 39.49871 13308 ft 269 kts 298°
2026-05-04 19:20 25.03605 39.48129 13851 ft 271 kts 298°
2026-05-04 19:21 25.04629 39.46379 14312 ft 273 kts 298°
2026-05-04 19:21 25.05665 39.44612 14781 ft 276 kts 298°
2026-05-04 19:21 25.06710 39.42829 15252 ft 278 kts 298°
2026-05-04 19:21 25.07765 39.41033 15714 ft 280 kts 298°
2026-05-04 19:22 25.08815 39.39242 16149 ft 283 kts 298°
2026-05-04 19:22 25.09888 39.37413 16600 ft 285 kts 298°
2026-05-04 19:22 25.10974 39.35565 17029 ft 288 kts 298°
2026-05-04 19:22 25.12065 39.33707 17541 ft 288 kts 297°
2026-05-04 19:23 25.13155 39.31849 18024 ft 289 kts 297°
2026-05-04 19:23 25.14253 39.29975 18409 ft 293 kts 298°
2026-05-04 19:23 25.15362 39.28083 18779 ft 294 kts 297°
2026-05-04 19:23 25.16473 39.26189 19209 ft 293 kts 297°
2026-05-04 19:24 25.17585 39.24288 19575 ft 298 kts 297°
2026-05-04 19:24 25.18743 39.22305 19613 ft 316 kts 298°
2026-05-04 19:24 25.19970 39.20199 19738 ft 336 kts 298°
2026-05-04 19:24 25.21276 39.17962 19883 ft 356 kts 298°
2026-05-04 19:25 25.22656 39.15603 19997 ft 374 kts 298°
2026-05-04 19:25 25.24097 39.13135 20123 ft 391 kts 298°
2026-05-04 19:25 25.25599 39.10572 20283 ft 403 kts 298°
2026-05-04 19:25 25.27141 39.07946 20587 ft 410 kts 298°
2026-05-04 19:26 25.28702 39.05292 21077 ft 412 kts 298°
2026-05-04 19:26 25.30263 39.02637 21587 ft 413 kts 298°
2026-05-04 19:26 25.31828 38.99970 22079 ft 414 kts 298°
2026-05-04 19:26 25.33399 38.97288 22539 ft 417 kts 298°
2026-05-04 19:27 25.34976 38.94592 22992 ft 419 kts 298°
2026-05-04 19:27 25.36559 38.91882 23412 ft 421 kts 298°
2026-05-04 19:27 25.38152 38.89155 23797 ft 423 kts 298°
2026-05-04 19:27 25.39742 38.86431 24267 ft 420 kts 298°
2026-05-04 19:28 25.41330 38.83713 24641 ft 422 kts 297°
2026-05-04 19:28 25.42924 38.80975 24933 ft 425 kts 297°
2026-05-04 19:28 25.44527 38.78219 25233 ft 427 kts 298°
2026-05-04 19:28 25.46140 38.75448 25546 ft 429 kts 297°
2026-05-04 19:29 25.47757 38.72668 25866 ft 431 kts 297°
2026-05-04 19:29 25.49381 38.69876 26192 ft 432 kts 297°
2026-05-04 19:29 25.50986 38.67116 26527 ft 433 kts 297°
2026-05-04 19:29 25.52617 38.64308 26837 ft 434 kts 297°
2026-05-04 19:30 25.54251 38.61495 27174 ft 435 kts 297°
2026-05-04 19:30 25.55886 38.58675 27477 ft 436 kts 297°
2026-05-04 19:30 25.57550 38.55805 27751 ft 438 kts 297°
2026-05-04 19:30 25.58640 38.53925 27917 ft 439 kts 297°
2026-05-04 19:31 25.60849 38.50109 28283 ft 440 kts 296°
2026-05-04 19:31 25.62480 38.47292 28649 ft 439 kts 296°
2026-05-04 19:31 25.64124 38.44453 29101 ft 437 kts 296°
2026-05-04 19:31 25.65757 38.41631 29549 ft 434 kts 296°
2026-05-04 19:32 25.67383 38.38819 29976 ft 433 kts 296°
2026-05-04 19:32 25.69002 38.36015 30400 ft 430 kts 295°
2026-05-04 19:32 25.70608 38.33233 30827 ft 427 kts 295°
2026-05-04 19:32 25.72205 38.30462 31168 ft 426 kts 295°
2026-05-04 19:33 25.73801 38.27691 31469 ft 426 kts 295°
2026-05-04 19:33 25.75393 38.24925 31818 ft 425 kts 295°
2026-05-04 19:33 25.76981 38.22166 32204 ft 423 kts 294°
2026-05-04 19:33 25.78561 38.19418 32501 ft 423 kts 294°
2026-05-04 19:34 25.80144 38.16664 32762 ft 424 kts 294°
2026-05-04 19:34 25.81728 38.13902 32959 ft 425 kts 294°
2026-05-04 19:34 25.83307 38.11147 33351 ft 422 kts 294°
2026-05-04 19:34 25.84877 38.08420 33872 ft 417 kts 294°
2026-05-04 19:35 25.86431 38.05717 34231 ft 415 kts 294°
2026-05-04 19:35 25.87979 38.03015 34462 ft 415 kts 294°
2026-05-04 19:35 25.89527 38.00309 34741 ft 415 kts 294°
2026-05-04 19:35 25.91070 37.97613 35055 ft 413 kts 293°
2026-05-04 19:36 25.92609 37.94920 35365 ft 412 kts 294°
2026-05-04 19:36 25.94145 37.92232 35655 ft 412 kts 294°
2026-05-04 19:36 25.95681 37.89545 35945 ft 411 kts 294°
2026-05-04 19:37 25.98749 37.84120 35943 ft 413 kts 290°
2026-05-04 19:37 26.00825 37.78328 35961 ft 399 kts 278°
2026-05-04 19:38 26.01742 37.72312 35971 ft 395 kts 273°
2026-05-04 19:38 26.02537 37.66268 35966 ft 395 kts 273°
2026-05-04 19:39 26.03347 37.60263 35967 ft 396 kts 273°
2026-05-04 19:39 26.04170 37.54211 35967 ft 396 kts 273°
2026-05-04 19:40 26.04991 37.48148 35966 ft 396 kts 273°
2026-05-04 19:40 26.05672 37.43063 35974 ft 397 kts 273°
2026-05-04 19:41 26.06476 37.36987 35960 ft 397 kts 273°
2026-05-04 19:41 26.07278 37.30926 35953 ft 396 kts 273°
2026-05-04 19:42 26.08078 37.24861 35964 ft 395 kts 273°
2026-05-04 19:42 26.08869 37.18852 35967 ft 395 kts 273°
2026-05-04 19:43 26.09663 37.12802 35951 ft 395 kts 273°
2026-05-04 19:43 26.10455 37.06760 35950 ft 394 kts 273°
2026-05-04 19:44 26.11241 37.00720 35951 ft 394 kts 273°
2026-05-04 19:44 26.12025 36.94684 35951 ft 394 kts 273°
2026-05-04 19:45 26.12806 36.88657 35914 ft 393 kts 272°
2026-05-04 19:45 26.13582 36.82638 35928 ft 393 kts 272°
2026-05-04 19:46 26.14356 36.76618 35946 ft 393 kts 272°
2026-05-04 19:46 26.15128 36.70595 35952 ft 393 kts 273°
2026-05-04 19:47 26.15898 36.64569 35935 ft 393 kts 273°
2026-05-04 19:47 26.16665 36.58546 35937 ft 393 kts 272°
2026-05-04 19:48 26.17498 36.52873 35930 ft 398 kts 280°
2026-05-04 19:48 26.17845 36.51704 35934 ft 402 kts 284°
2026-05-04 19:49 26.20433 36.46103 35934 ft 413 kts 296°
2026-05-04 19:49 26.24305 36.41272 35938 ft 421 kts 304°
2026-05-04 19:50 26.27718 36.37417 35939 ft 420 kts 304°
2026-05-04 19:50 26.32473 36.32015 35951 ft 420 kts 304°
2026-05-04 19:51 26.36534 36.27349 35939 ft 419 kts 304°
2026-05-04 19:51 26.40580 36.22678 35946 ft 418 kts 304°
2026-05-04 19:52 26.44621 36.18004 35938 ft 418 kts 304°
2026-05-04 19:52 26.48661 36.13328 35942 ft 418 kts 304°
2026-05-04 19:53 26.52703 36.08645 35943 ft 419 kts 304°
2026-05-04 19:53 26.56747 36.03953 35944 ft 419 kts 304°
2026-05-04 19:54 26.60793 35.99255 35942 ft 420 kts 304°
2026-05-04 19:54 26.64846 35.94545 35941 ft 420 kts 304°
2026-05-04 19:55 26.68904 35.89823 35948 ft 422 kts 304°
2026-05-04 19:55 26.72964 35.85093 35942 ft 422 kts 304°
2026-05-04 19:56 26.77023 35.80360 35942 ft 421 kts 304°
2026-05-04 19:56 26.81073 35.75634 35942 ft 421 kts 304°
2026-05-04 19:57 26.85119 35.70907 35943 ft 420 kts 304°
2026-05-04 19:57 26.89157 35.66184 35942 ft 420 kts 304°
2026-05-04 19:58 26.93189 35.61461 35942 ft 419 kts 304°
2026-05-04 19:58 26.97216 35.56739 35942 ft 419 kts 304°
2026-05-04 19:59 27.01237 35.52018 35945 ft 418 kts 304°
2026-05-04 19:59 27.05255 35.47296 35915 ft 420 kts 304°
2026-05-04 19:59 27.07288 35.44898 35318 ft 426 kts 304°
2026-05-04 20:00 27.09329 35.42495 34653 ft 425 kts 304°
2026-05-04 20:00 27.11368 35.40097 33979 ft 425 kts 305°
2026-05-04 20:00 27.13414 35.37687 33146 ft 427 kts 305°
2026-05-04 20:00 27.15466 35.35269 32361 ft 428 kts 306°
2026-05-04 20:01 27.17518 35.32848 31585 ft 429 kts 306°
2026-05-04 20:01 27.19576 35.30420 30786 ft 430 kts 306°
2026-05-04 20:01 27.21640 35.27981 29938 ft 432 kts 307°
2026-05-04 20:01 27.23711 35.25534 29082 ft 431 kts 307°
2026-05-04 20:02 27.25763 35.23113 28440 ft 425 kts 307°
2026-05-04 20:02 27.27787 35.20724 27829 ft 419 kts 307°
2026-05-04 20:02 27.29783 35.18366 27206 ft 414 kts 307°
2026-05-04 20:02 27.31756 35.16030 26604 ft 409 kts 307°
2026-05-04 20:03 27.33704 35.13721 26022 ft 405 kts 307°
2026-05-04 20:03 27.35634 35.11432 25438 ft 401 kts 307°
2026-05-04 20:03 27.37545 35.09163 24859 ft 398 kts 308°
2026-05-04 20:03 27.39441 35.06912 24269 ft 395 kts 308°
2026-05-04 20:04 27.41328 35.04670 23697 ft 393 kts 307°
2026-05-04 20:04 27.43204 35.02439 23023 ft 391 kts 307°
2026-05-04 20:04 27.45066 35.00225 22407 ft 388 kts 307°
2026-05-04 20:04 27.46909 34.98033 21821 ft 383 kts 307°
2026-05-04 20:05 27.48708 34.95893 21246 ft 379 kts 307°
2026-05-04 20:05 27.50513 34.93745 20681 ft 376 kts 307°
2026-05-04 20:05 27.52330 34.91643 19987 ft 376 kts 309°
2026-05-04 20:05 27.54229 34.89600 19330 ft 377 kts 311°
2026-05-04 20:06 27.56148 34.87594 18742 ft 375 kts 311°
2026-05-04 20:06 27.58053 34.85614 18171 ft 371 kts 311°
2026-05-04 20:06 27.59943 34.83643 17552 ft 368 kts 311°
2026-05-04 20:06 27.61807 34.81690 16977 ft 364 kts 311°
2026-05-04 20:07 27.63645 34.79756 16427 ft 360 kts 311°
2026-05-04 20:07 27.65463 34.77837 15891 ft 356 kts 311°
2026-05-04 20:07 27.67258 34.75937 15365 ft 352 kts 311°
2026-05-04 20:07 27.69039 34.74050 14844 ft 349 kts 311°
2026-05-04 20:08 27.70802 34.72180 14338 ft 347 kts 311°
2026-05-04 20:08 27.72555 34.70319 13821 ft 345 kts 311°
2026-05-04 20:08 27.74296 34.68471 13238 ft 343 kts 311°
2026-05-04 20:08 27.76025 34.66633 12695 ft 340 kts 312°
2026-05-04 20:09 27.77741 34.64810 12183 ft 337 kts 312°
2026-05-04 20:09 27.79443 34.63001 11663 ft 335 kts 312°
2026-05-04 20:09 27.81134 34.61203 11155 ft 332 kts 313°
2026-05-04 20:09 27.82803 34.59427 10848 ft 324 kts 313°
2026-05-04 20:10 27.84412 34.57718 10695 ft 312 kts 312°
2026-05-04 20:10 27.85962 34.56070 10555 ft 300 kts 312°
2026-05-04 20:10 27.87456 34.54478 10425 ft 290 kts 312°
2026-05-04 20:10 27.88894 34.52944 10303 ft 280 kts 312°
2026-05-04 20:11 27.90284 34.51462 10186 ft 270 kts 312°
2026-05-04 20:11 27.91627 34.50029 10075 ft 261 kts 312°
2026-05-04 20:11 27.92928 34.48641 9980 ft 253 kts 311°
2026-05-04 20:11 27.94209 34.47273 9648 ft 254 kts 312°
2026-05-04 20:12 27.95486 34.45909 9393 ft 251 kts 312°
2026-05-04 20:12 27.96558 34.44379 8934 ft 251 kts 291°
2026-05-04 20:12 27.96843 34.42444 8430 ft 254 kts 263°
2026-05-04 20:12 27.96227 34.40568 7960 ft 262 kts 236°
2026-05-04 20:13 27.94869 34.39209 7400 ft 276 kts 209°
2026-05-04 20:13 27.93013 34.38516 6848 ft 287 kts 195°
2026-05-04 20:13 27.91039 34.38011 6248 ft 295 kts 193°
2026-05-04 20:13 27.89013 34.37500 5636 ft 300 kts 193°
2026-05-04 20:14 27.87001 34.36992 5202 ft 290 kts 193°
2026-05-04 20:14 27.85095 34.36505 5044 ft 271 kts 193°
2026-05-04 20:14 27.83321 34.36046 4987 ft 251 kts 193°
2026-05-04 20:14 27.81681 34.35621 4959 ft 233 kts 193°
2026-05-04 20:15 27.80101 34.35207 4481 ft 236 kts 193°
2026-05-04 20:15 27.78510 34.34709 3979 ft 239 kts 205°
2026-05-04 20:15 27.77183 34.33661 3719 ft 232 kts 220°
2026-05-04 20:15 27.75965 34.32500 3452 ft 227 kts 221°
2026-05-04 20:16 27.74778 34.31360 3202 ft 221 kts 221°
2026-05-04 20:16 27.73612 34.30253 2964 ft 218 kts 222°
2026-05-04 20:16 27.72528 34.29117 2880 ft 207 kts 240°
2026-05-04 20:16 27.72275 34.27641 2891 ft 191 kts 288°
2026-05-04 20:17 27.73018 34.26465 2919 ft 187 kts 321°
2026-05-04 20:17 27.74062 34.25569 2884 ft 189 kts 337°
2026-05-04 20:17 27.75299 34.25355 2899 ft 176 kts
2026-05-04 20:17 27.76436 34.25702 2898 ft 166 kts 26°
2026-05-04 20:18 27.77456 34.26318 2881 ft 166 kts 27°
2026-05-04 20:18 27.78469 34.26939 2888 ft 167 kts 27°
2026-05-04 20:18 27.79489 34.27566 2898 ft 166 kts 27°
2026-05-04 20:18 27.80520 34.28144 2881 ft 165 kts 14°
2026-05-04 20:19 27.81646 34.28301 2893 ft 163 kts
2026-05-04 20:19 27.82784 34.28425 2893 ft 168 kts
2026-05-04 20:19 27.83948 34.28546 2906 ft 168 kts
2026-05-04 20:19 27.85112 34.28668 2900 ft 167 kts
2026-05-04 20:20 27.86255 34.28788 2891 ft 163 kts
2026-05-04 20:20 27.87392 34.28915 2893 ft 166 kts
2026-05-04 20:20 27.88410 34.29429 2895 ft 166 kts 45°
2026-05-04 20:20 27.89224 34.30320 2927 ft 156 kts 40°
2026-05-04 20:21 27.90018 34.31108 2903 ft 149 kts 41°
2026-05-04 20:21 27.90779 34.31916 2860 ft 153 kts 44°
2026-05-04 20:21 27.92325 34.33617 2066 ft 158 kts 41°
2026-05-04 20:22 27.93147 34.34428 1648 ft 156 kts 39°
2026-05-04 20:22 27.93945 34.35244 1238 ft 153 kts 38°
2026-05-04 20:22 27.94733 34.36038 809 ft 151 kts 38°
2026-05-04 20:22 27.95481 34.36841 506 ft 145 kts 40°
2026-05-04 20:23 27.96202 34.37595 326 ft 141 kts 38°
2026-05-04 20:23 27.96923 34.38350 168 ft 142 kts 37°
2026-05-04 20:23 27.97596 34.39046 135 ft 101 kts 44°
2026-05-04 20:23 27.97850 34.39309 137 ft 20 kts 43°
2026-05-04 20:24 27.97943 34.39323 138 ft 12 kts 322°
2026-05-04 20:24 27.98001 34.39254 138 ft 12 kts 312°
2026-05-04 20:24 27.98011 34.39173 137 ft 12 kts 230°
2026-05-04 20:24 27.97952 34.39111 137 ft 11 kts 223°
2026-05-04 20:25 27.97895 34.39050 137 ft 11 kts 222°
2026-05-04 20:25 27.97839 34.38992 137 ft 11 kts 222°
2026-05-04 20:25 27.97802 34.38955 137 ft 11 kts 221°
2026-05-04 20:25 27.97777 34.38870 137 ft 10 kts 302°
2026-05-04 20:26 27.97811 34.38828 137 ft 4 kts 314°
2026-05-04 20:26 27.97817 34.38821 137 ft 0 kts 314°